Total_Precipitation_Accumulation
0.87 0.84 0.77 0.77 0.71 0.77 0.87 0.94 0.89 0.80 0.73 0.66 0.63 0.67 0.70 0.74 0.78 0.83 0.89 0.82 0.89 1.07 1.21 1.18 1.02 0.85 0.78 0.80 0.81 0.79 0.85 0.90 0.90 0.93 0.88 0.79 0.68 0.54 0.42 0.41 0.41 0.40 0.44
0.93 0.90 0.85 0.86 0.83 0.84 0.96 0.94 0.85 0.88 0.85 0.74 0.62 0.63 0.69 0.76 0.81 0.78 0.81 0.90 0.90 0.91 1.14 1.31 1.29 1.06 0.98 0.92 0.93 0.93 0.93 0.90 0.87 0.86 0.81 0.76 0.70 0.62 0.51 0.44 0.45 0.41 0.40
0.83 0.86 0.87 0.87 0.91 0.99 1.04 1.06 0.90 0.89 0.83 0.73 0.67 0.62 0.61 0.64 0.68 0.72 0.70 0.67 0.73 0.82 1.00 1.26 1.41 1.27 1.18 1.12 1.03 0.99 0.97 0.91 0.87 0.81 0.75 0.66 0.62 0.59 0.53 0.51 0.51 0.49 0.45
0.77 0.90 0.90 0.88 0.91 1.03 1.10 1.14 1.04 0.96 0.88 0.83 0.80 0.72 0.66 0.67 0.65 0.72 0.72 0.62 0.71 0.69 0.83 0.93 1.10 1.21 1.22 1.21 1.16 1.04 0.92 0.82 0.73 0.74 0.68 0.58 0.51 0.45 0.44 0.49 0.50 0.52 0.51
0.83 1.00 1.10 1.11 1.11 1.12 1.10 1.05 1.09 1.04 0.98 0.96 0.92 0.88 0.79 0.71 0.72 0.69 0.71 0.71 0.66 0.70 0.79 0.63 0.67 0.75 0.93 1.08 1.15 1.16 1.01 0.86 0.73 0.68 0.67 0.54 0.43 0.37 0.35 0.42 0.42 0.44 0.47
1.18 1.32 1.32 1.39 1.46 1.33 1.27 1.20 1.21 1.15 1.06 1.07 1.02 0.91 0.83 0.72 0.76 0.81 0.80 0.79 0.73 0.69 0.77 0.66 0.57 0.49 0.59 0.81 1.00 1.18 1.15 1.01 0.84 0.72 0.69 0.59 0.44 0.34 0.33 0.35 0.38 0.37 0.40
1.52 1.72 1.69 1.73 1.75 1.61 1.56 1.61 1.80 1.73 1.46 1.24 1.24 1.06 0.89 0.73 0.81 0.83 0.80 0.82 0.80 0.86 0.95 0.85 0.66 0.57 0.48 0.51 0.62 0.91 1.12 1.09 1.04 0.89 0.82 0.73 0.53 0.37 0.31 0.33 0.36 0.36 0.35
1.44 1.57 1.82 1.91 1.83 1.84 1.95 1.98 2.27 2.39 1.97 1.56 1.54 1.62 1.35 1.13 0.85 0.70 0.74 0.75 0.82 1.01 1.03 0.88 0.77 0.63 0.55 0.56 0.40 0.50 0.78 1.02 1.11 1.08 1.00 0.87 0.68 0.48 0.36 0.32 0.35 0.38 0.40
1.41 1.51 1.66 1.82 1.82 1.88 1.97 2.08 2.40 2.82 2.57 2.07 1.84 2.00 1.68 1.47 1.27 0.87 0.70 0.72 0.82 0.99 1.11 1.06 0.98 0.86 0.71 0.72 0.61 0.44 0.44 0.62 0.99 1.21 1.21 1.06 0.83 0.60 0.45 0.39 0.39 0.44 0.43
1.30 1.37 1.51 1.64 1.76 1.78 1.91 2.00 2.11 2.56 2.87 2.55 2.26 1.93 1.60 1.51 1.56 1.33 0.93 0.82 0.89 0.94 1.02 1.03 1.03 1.08 0.98 0.89 0.80 0.55 0.42 0.41 0.73 1.14 1.37 1.34 1.09 0.87 0.71 0.58 0.51 0.50 0.47
1.40 1.39 1.53 1.60 1.61 1.66 1.76 2.09 2.34 2.59 2.77 2.70 2.59 2.42 2.17 1.85 1.47 1.52 1.44 1.15 1.05 0.98 1.01 1.06 1.09 1.11 1.12 1.08 1.13 0.80 0.53 0.44 0.51 0.92 1.38 1.62 1.48 1.20 1.00 0.85 0.70 0.62 0.54
1.49 1.53 1.59 1.59 1.56 1.59 1.69 1.91 2.18 2.39 2.71 2.87 2.75 2.53 2.36 2.19 1.93 1.76 1.53 1.42 1.37 1.15 1.09 1.10 1.06 1.11 1.17 1.25 1.24 1.19 0.73 0.46 0.43 0.60 0.98 1.39 1.58 1.47 1.28 1.14 0.97 0.88 0.78
1.37 1.41 1.52 1.64 1.72 1.74 1.85 2.02 2.16 2.07 2.29 2.67 2.65 2.47 2.34 2.09 2.04 2.06 1.89 1.61 1.44 1.15 1.08 1.07 1.03 1.14 1.15 1.15 1.36 1.51 0.98 0.62 0.47 0.54 0.65 0.86 1.14 1.36 1.48 1.46 1.35 1.23 1.11
1.33 1.27 1.32 1.43 1.57 1.73 1.78 1.83 1.84 1.81 1.94 2.18 2.26 2.41 2.48 2.21 2.04 1.90 1.81 1.83 1.58 1.33 1.17 1.06 0.98 1.01 1.06 1.11 1.31 1.48 1.07 0.81 0.57 0.51 0.54 0.65 0.76 0.86 1.08 1.28 1.48 1.54 1.51
1.09 1.02 1.02 1.07 1.15 1.23 1.31 1.46 1.55 1.66 1.71 1.83 1.98 2.10 2.24 2.33 2.22 1.97 1.87 1.83 1.75 1.56 1.36 1.27 1.13 0.96 1.06 1.16 1.34 1.17 1.05 1.01 0.79 0.60 0.55 0.57 0.63 0.65 0.71 0.75 0.89 1.07 1.28
1.01 0.94 0.90 0.86 0.83 0.81 0.85 1.03 1.22 1.34 1.45 1.61 1.80 1.93 1.94 1.99 2.17 2.12 1.93 1.88 1.78 1.62 1.48 1.31 1.23 1.10 1.24 1.18 1.31 1.13 1.14 1.21 0.90 0.70 0.60 0.58 0.57 0.53 0.50 0.48 0.46 0.48 0.56
0.99 0.98 0.89 0.82 0.89 0.89 0.85 0.91 0.96 1.02 1.10 1.25 1.40 1.53 1.68 1.93 2.21 2.23 2.17 2.04 1.90 1.73 1.48 1.34 1.16 1.08 1.36 1.44 1.37 1.23 1.19 1.15 0.93 0.83 0.70 0.63 0.60 0.55 0.50 0.45 0.42 0.38 0.37
0.67 0.76 0.84 0.79 0.78 0.80 0.82 0.88 0.90 0.94 0.97 1.05 1.15 1.27 1.44 1.74 2.07 2.29 2.37 2.27 2.11 1.93 1.77 1.61 1.30 1.07 1.18 1.49 1.63 1.57 1.33 1.15 1.03 0.98 0.86 0.74 0.68 0.61 0.54 0.51 0.48 0.45 0.40
0.50 0.54 0.63 0.64 0.73 0.80 0.83 0.85 0.87 0.91 0.93 1.02 1.16 1.21 1.27 1.46 1.66 1.87 2.05 2.18 2.16 2.13 2.07 1.82 1.53 1.27 1.21 1.33 1.57 1.59 1.52 1.45 1.24 1.18 1.19 1.06 0.93 0.82 0.71 0.61 0.58 0.53 0.46
0.52 0.58 0.70 0.74 0.70 0.68 0.73 0.84 0.88 0.84 0.83 0.87 0.96 1.05 1.15 1.20 1.35 1.49 1.60 1.79 2.00 2.22 2.28 2.12 1.86 1.54 1.42 1.30 1.40 1.55 1.63 1.56 1.46 1.30 1.28 1.18 1.16 1.09 0.97 0.81 0.67 0.59 0.58
0.57 0.59 0.70 0.81 0.87 0.83 0.80 0.89 0.86 0.84 0.84 0.83 0.88 0.88 0.95 0.97 1.03 1.21 1.26 1.47 1.79 2.05 2.16 2.22 2.10 1.79 1.54 1.36 1.16 1.25 1.49 1.70 1.68 1.60 1.60 1.38 1.25 1.12 1.03 1.00 0.93 0.80 0.71
0.47 0.47 0.51 0.58 0.68 0.72 0.93 0.89 0.74 0.70 0.75 0.82 0.87 0.87 0.89 0.83 0.81 0.87 1.01 1.13 1.43 1.64 1.77 1.83 1.86 1.70 1.49 1.36 1.31 1.27 1.33 1.47 1.52 1.41 1.43 1.51 1.45 1.31 1.21 1.10 1.12 1.16 1.08
0.40 0.38 0.37 0.38 0.44 0.60 0.68 0.52 0.51 0.57 0.71 0.83 0.90 0.92 0.88 0.84 0.88 0.89 0.91 0.92 0.99 1.16 1.37 1.56 1.58 1.48 1.53 1.44 1.37 1.27 1.28 1.29 1.28 1.37 1.43 1.48 1.47 1.37 1.31 1.30 1.33 1.23 1.17
0.30 0.29 0.37 0.44 0.46 0.48 0.54 0.44 0.43 0.54 0.73 0.87 0.87 0.83 0.89 0.91 0.93 1.00 0.93 1.00 0.95 0.93 1.02 1.07 1.20 1.39 1.53 1.68 1.65 1.54 1.55 1.49 1.41 1.49 1.49 1.44 1.35 1.27 1.19 1.17 1.23 1.11 1.03
0.34 0.37 0.49 0.56 0.50 0.42 0.46 0.48 0.53 0.68 0.81 0.89 0.86 0.85 0.93 0.97 1.10 1.15 1.05 1.10 1.06 1.02 0.99 1.10 1.19 1.28 1.36 1.48 1.61 1.62 1.59 1.56 1.44 1.38 1.38 1.31 1.21 1.22 1.20 1.09 1.03 1.02 0.93
0.31 0.39 0.41 0.38 0.38 0.44 0.51 0.50 0.63 0.81 0.93 1.03 0.99 0.98 1.17 1.12 1.09 1.04 1.02 1.16 1.13 0.98 0.91 0.96 1.01 1.07 1.10 1.20 1.32 1.35 1.46 1.52 1.43 1.30 1.15 1.11 1.12 1.14 1.17 1.08 0.97 0.90 0.86